| time (UTC) | temp F | wind direction | speed MPH | gust MPH | rain 1hr in | rain 24hr in | rain mn in | humidity % | barometer mb |
| 20260905090039 | 59 | 275 | 2.0 | 4.0 | 0.00 | 0.09 | 0.01 | 75 | 995.8 |
| 20260905083029 | 57 | 299 | 2.0 | 5.0 | 0.00 | 0.16 | 0.01 | 78 | 995.5 |
| 20260905080019 | 57 | 267 | 2.0 | 4.0 | 0.00 | 0.22 | 0.01 | 79 | 995.1 |
| 20260905073109 | 56 | 280 | 2.0 | 5.0 | 0.00 | 0.22 | 0.01 | 82 | 994.8 |
| 20260905070101 | 55 | 271 | 2.0 | 5.0 | 0.00 | 0.22 | 0.01 | 84 | 994.5 |
| 20260905063048 | 54 | 285 | 2.0 | 6.0 | 0.00 | 0.24 | 0.01 | 85 | 994.2 |
| 20260905060039 | 54 | 272 | 3.0 | 6.0 | 0.00 | 0.27 | 0.01 | 89 | 993.8 |
| 20260905053029 | 53 | 272 | 3.0 | 6.0 | 0.00 | 0.27 | 0.01 | 91 | 993.6 |
| 20260905050019 | 53 | 290 | 3.0 | 7.0 | 0.00 | 0.29 | 0.01 | 92 | 993.4 |
| 20260905043110 | 53 | 277 | 3.0 | 5.0 | 0.00 | 0.29 | 0.01 | 91 | 993.1 |
| 20260905040120 | 53 | 275 | 3.0 | 6.0 | 0.00 | 0.29 | 0.01 | 91 | 992.7 |
| 20260905033050 | 53 | 276 | 3.0 | 6.0 | 0.00 | 0.29 | 0.01 | 91 | 992.4 |
| 20260905030040 | 53 | 280 | 4.0 | 9.0 | 0.00 | 0.29 | 0.01 | 91 | 992.1 |
| 20260905023029 | 52 | 289 | 4.0 | 8.0 | 0.00 | 0.29 | 0.01 | 91 | 991.9 |
| 20260905020020 | 52 | 283 | 3.0 | 7.0 | 0.00 | 0.29 | 0.01 | 91 | 991.7 |
| 20260905013110 | 52 | 292 | 3.0 | 12.0 | 0.00 | 0.29 | 0.01 | 91 | 991.6 |
| 20260905010101 | 52 | 269 | 3.0 | 8.0 | 0.00 | 0.29 | 0.01 | 90 | 991.5 |
| 20260905003050 | 52 | 284 | 4.0 | 9.0 | 0.01 | 0.29 | 0.01 | 90 | 991.4 |
| 20260905000040 | 52 | 280 | 4.0 | 9.0 | 0.01 | 0.29 | 0.01 | 91 | 991.4 |
| 20260904233030 | 53 | 276 | 4.0 | 7.0 | 0.00 | 0.28 | 0.00 | 91 | 991.3 |
| 20260904230020 | 53 | 279 | 5.0 | 12.0 | 0.00 | 0.28 | 0.00 | 91 | 991.2 |
| 20260904223111 | 53 | 298 | 4.0 | 10.0 | 0.00 | 0.28 | 0.00 | 93 | 991.1 |
| 20260904220121 | 53 | 278 | 3.0 | 7.0 | 0.00 | 0.28 | 0.00 | 92 | 990.9 |
| 20260904213111 | 53 | 274 | 2.0 | 4.0 | 0.00 | 0.28 | 0.28 | 90 | 990.9 |
| 20260904210040 | 54 | 280 | 2.0 | 6.0 | 0.00 | 0.28 | 0.28 | 86 | 990.8 |
| 20260904203031 | 55 | 258 | 3.0 | 9.0 | 0.00 | 0.28 | 0.28 | 85 | 990.8 |
| 20260904200020 | 55 | 255 | 3.0 | 8.0 | 0.00 | 0.28 | 0.28 | 84 | 990.8 |
| 20260904193112 | 55 | 216 | 1.0 | 6.0 | 0.00 | 0.28 | 0.28 | 84 | 990.9 |
| 20260904190101 | 55 | 138 | 0.0 | 2.0 | 0.00 | 0.28 | 0.28 | 87 | 991.0 |
| 20260904183050 | 56 | 116 | 0.0 | 2.0 | 0.00 | 0.28 | 0.28 | 85 | 991.0 |
| 20260904180040 | 58 | 118 | 1.0 | 3.0 | 0.00 | 0.28 | 0.28 | 81 | 991.2 |
| 20260904173030 | 59 | 221 | 1.0 | 4.0 | 0.00 | 0.28 | 0.28 | 79 | 991.2 |
| 20260904170020 | 59 | 162 | 1.0 | 4.0 | 0.00 | 0.28 | 0.28 | 83 | 991.3 |
| 20260904163111 | 60 | 133 | 1.0 | 3.0 | 0.00 | 0.28 | 0.28 | 81 | 991.4 |
| 20260904153050 | 63 | 154 | 1.0 | 5.0 | 0.00 | 0.28 | 0.28 | 78 | 991.9 |
| 20260904150042 | 62 | 112 | 1.0 | 3.0 | 0.00 | 0.28 | 0.28 | 83 | 992.2 |
| 20260904143031 | 62 | 128 | 1.0 | 3.0 | 0.00 | 0.28 | 0.28 | 83 | 992.5 |
| 20260904140043 | 62 | 131 | 1.0 | 4.0 | 0.00 | 0.28 | 0.28 | 84 | 992.8 |
| 20260904133111 | 61 | 140 | 1.0 | 6.0 | 0.00 | 0.28 | 0.28 | 84 | 993.2 |
| 20260904130101 | 62 | 124 | 1.0 | 3.0 | 0.00 | 0.28 | 0.28 | 84 | 993.5 |
| 20260904123051 | 61 | 111 | 1.0 | 3.0 | 0.00 | 0.28 | 0.28 | 85 | 993.7 |
| 20260904120103 | 61 | 171 | 1.0 | 3.0 | 0.00 | 0.28 | 0.28 | 84 | 994.0 |
| 20260904113032 | 62 | 230 | 0.0 | 2.0 | 0.00 | 0.28 | 0.28 | 84 | 994.3 |
| 20260904110021 | 61 | 254 | 1.0 | 6.0 | 0.00 | 0.28 | 0.28 | 88 | 994.7 |
| 20260904103132 | 60 | 169 | 0.0 | 4.0 | 0.02 | 0.28 | 0.28 | 89 | 994.8 |
| 20260904093052 | 56 | 201 | 0.0 | 3.0 | 0.12 | 0.25 | 0.25 | 90 | 995.4 |